Date String (YYYY-MM-DD hh:mm:ss) UTC,Instrument flags,Ambient pressure (hPa),Sample flow (lpm),Bypass flow (lpm),Sample temperature (°C),Ambient temperature (°C),ASC tube jacket temperature (°C),LED temperature (°C),Box temperature (°C),Sample RH (%),Span deviation,Mass concentration (μg/m³),Mass concentration (μg/m³),Mass concentration (μg/m³)
DateTimeUTC,F1_M11,P_M11,Q1_M11,Q2_M11,T1_M11,T2_M11,T3_M11,T4_M11,T5_M11,U1_M11,ZSPAN_M11,X0_M11,X2_M11,X1_M11
2022-07-18 07:00:00,,0828.0,5.00,0.00,29.6,28.0,00.0,38.1,31.5,25.8,0000.0,0012.14,0006.68,0005.70
2022-07-18 07:01:00,,0828.0,5.01,0.00,29.6,27.5,00.0,38.1,31.5,25.8,0000.0,0012.21,0006.68,0005.71
2022-07-18 07:02:00,,0828.0,5.00,0.00,29.5,27.4,00.0,38.1,31.3,25.9,0000.0,0012.25,0006.63,0005.71
2022-07-18 07:03:00,,0828.0,5.00,0.00,29.5,27.5,00.0,38.1,31.3,26.0,0000.0,0012.66,0006.59,0005.71
2022-07-18 07:04:00,,0828.0,5.00,0.00,29.4,27.6,00.0,38.1,31.3,26.0,0000.0,0012.40,0006.56,0005.72
2022-07-18 07:05:00,,0828.0,4.99,0.00,29.4,27.7,00.0,38.2,31.3,26.0,0000.0,0012.17,0006.56,0005.72
2022-07-18 07:06:00,,0828.0,5.00,0.00,29.4,27.9,00.0,38.2,31.3,25.9,0000.0,0012.43,0006.55,0005.73
2022-07-18 07:07:00,,0828.0,5.01,0.00,29.5,28.0,00.0,38.2,31.4,25.9,0000.0,0012.76,0006.58,0005.74
2022-07-18 07:08:00,,0828.0,5.00,0.00,29.5,28.2,00.0,38.2,31.4,26.0,0000.0,0013.48,0006.57,0005.74
2022-07-18 07:09:00,,0828.1,4.99,0.00,29.5,28.3,00.0,38.2,31.4,26.2,0000.0,0013.45,0006.52,0005.73
2022-07-18 07:10:00,,0828.0,5.01,0.00,29.5,28.4,00.0,38.2,31.5,26.0,0000.0,0013.66,0006.54,0005.74
2022-07-18 07:11:00,,0828.1,5.00,0.00,29.6,28.5,00.0,38.2,31.5,26.0,0000.0,0013.21,0006.51,0005.75
2022-07-18 07:12:00,,0828.1,4.99,0.00,29.6,28.6,00.0,38.3,31.6,25.9,0000.0,0013.10,0006.48,0005.76
2022-07-18 07:13:00,,0828.1,5.01,0.00,29.6,28.2,00.0,38.2,31.6,25.9,0000.0,0013.11,0006.56,0005.78
2022-07-18 07:14:00,,0828.1,5.00,0.00,29.6,27.5,00.0,38.2,31.5,25.8,0000.0,0013.18,0006.60,0005.79
2022-07-18 07:15:00,,0828.0,4.99,0.00,29.6,27.4,00.0,38.2,31.4,25.9,0000.0,0013.21,0006.61,0005.80
2022-07-18 07:16:00,,0828.0,5.00,0.00,29.5,27.4,00.0,38.2,31.3,26.0,0000.0,0013.49,0006.64,0005.80
2022-07-18 07:17:00,,0828.0,5.00,0.00,29.5,27.5,00.0,38.2,31.3,26.1,0000.0,0013.58,0006.64,0005.80
2022-07-18 07:18:00,,0828.0,5.00,0.00,29.5,27.7,00.0,38.2,31.3,26.1,0000.0,0013.11,0006.61,0005.80
2022-07-18 07:19:00,,0828.0,5.00,0.00,29.5,27.8,00.0,38.2,31.3,26.1,0000.0,0012.40,0006.59,0005.81
2022-07-18 07:20:00,,0828.0,5.01,0.00,29.5,28.0,00.0,38.2,31.4,26.1,0000.0,0012.74,0006.61,0005.81
2022-07-18 07:21:00,,0828.0,4.99,0.00,29.5,28.1,00.0,38.2,31.4,26.1,0000.0,0012.60,0006.59,0005.81
2022-07-18 07:22:00,,0828.0,5.02,0.00,29.5,28.2,00.0,38.2,31.4,26.0,0000.0,0012.81,0006.65,0005.82
2022-07-18 07:23:00,,0828.0,4.99,0.00,29.5,28.4,00.0,38.3,31.5,26.0,0000.0,0012.75,0006.68,0005.81
2022-07-18 07:24:00,,0828.0,5.00,0.00,29.6,28.5,00.0,38.3,31.5,25.9,0000.0,0012.63,0006.68,0005.82
2022-07-18 07:25:00,,0828.0,4.98,0.00,29.6,28.5,00.0,38.3,31.6,25.9,0000.0,0012.34,0006.63,0005.83
2022-07-18 07:26:00,,0828.0,5.01,0.00,29.6,28.4,00.0,38.3,31.6,25.8,0000.0,0012.49,0006.64,0005.85
2022-07-18 07:27:00,,0827.9,5.00,0.00,29.6,27.7,00.0,38.2,31.5,25.8,0000.0,0012.40,0006.65,0005.88
2022-07-18 07:28:00,,0827.9,5.01,0.00,29.6,27.4,00.0,38.2,31.5,25.9,0000.0,0012.17,0006.71,0005.89
2022-07-18 07:29:00,,0828.0,5.00,0.00,29.6,27.4,00.0,38.2,31.4,26.0,0000.0,0013.02,0006.72,0005.91
2022-07-18 07:30:00,,0827.9,5.00,0.00,29.5,27.5,00.0,38.2,31.3,26.0,0000.0,0013.53,0006.77,0005.93
2022-07-18 07:31:00,,0827.8,5.00,0.00,29.5,27.6,00.0,38.2,31.3,26.0,0000.0,0013.34,0006.84,0005.96
2022-07-18 07:32:00,,0827.9,5.01,0.00,29.5,27.8,00.0,38.2,31.3,26.0,0000.0,0013.49,0006.89,0005.98
2022-07-18 07:33:00,,0828.0,5.01,0.00,29.5,27.9,00.0,38.2,31.4,26.0,0000.0,0013.69,0006.91,0006.00
2022-07-18 07:34:00,,0827.9,4.99,0.00,29.5,28.1,00.0,38.3,31.4,26.0,0000.0,0013.64,0006.90,0006.01
2022-07-18 07:35:00,,0827.9,5.00,0.00,29.5,28.2,00.0,38.3,31.4,26.0,0000.0,0013.80,0006.88,0006.02
2022-07-18 07:36:00,,0827.9,5.01,0.00,29.6,28.3,00.0,38.3,31.5,25.9,0000.0,0013.92,0006.94,0006.03
2022-07-18 07:37:00,,0827.9,4.99,0.00,29.6,28.4,00.0,38.3,31.5,25.9,0000.0,0014.01,0006.96,0006.02
2022-07-18 07:38:00,,0828.0,5.00,0.00,29.6,28.5,00.0,38.3,31.6,25.8,0000.0,0014.20,0006.94,0006.01
2022-07-18 07:39:00,,0827.9,4.99,0.00,29.6,28.6,00.0,38.3,31.6,25.8,0000.0,0013.66,0006.92,0006.02
2022-07-18 07:40:00,,0827.9,5.00,0.00,29.7,28.4,00.0,38.3,31.6,25.8,0000.0,0013.06,0006.94,0006.04
2022-07-18 07:41:00,,0828.0,4.99,0.00,29.7,27.7,00.0,38.3,31.5,25.9,0000.0,0012.65,0006.92,0006.06
2022-07-18 07:42:00,,0828.0,5.01,0.00,29.6,27.4,00.0,38.2,31.5,25.9,0000.0,0012.66,0006.92,0006.07
2022-07-18 07:43:00,,0827.9,4.99,0.00,29.6,27.4,00.0,38.3,31.4,26.1,0000.0,0012.84,0006.95,0006.09
2022-07-18 07:44:00,,0827.9,5.00,0.00,29.5,27.5,00.0,38.3,31.3,26.2,0000.0,0012.68,0006.92,0006.10
2022-07-18 07:45:00,,0827.9,5.01,0.00,29.5,27.7,00.0,38.3,31.3,26.2,0000.0,0012.78,0006.96,0006.14
2022-07-18 07:46:00,,0827.9,5.00,0.00,29.5,27.8,00.0,38.3,31.4,26.2,0000.0,0013.13,0007.00,0006.16
2022-07-18 07:47:00,,0827.9,5.01,0.00,29.5,28.0,00.0,38.3,31.4,26.2,0000.0,0014.24,0007.03,0006.17
2022-07-18 07:48:00,,0827.9,4.99,0.00,29.5,28.1,00.0,38.3,31.4,26.1,0000.0,0014.27,0007.09,0006.18
2022-07-18 07:49:00,,0827.9,5.00,0.00,29.5,28.2,00.0,38.3,31.4,26.0,0000.0,0014.11,0007.13,0006.19
2022-07-18 07:50:00,,0827.9,5.01,0.00,29.6,28.3,00.0,38.3,31.5,25.9,0000.0,0014.03,0007.10,0006.19
2022-07-18 07:51:00,,0827.9,5.00,0.00,29.6,28.4,00.0,38.3,31.5,25.9,0000.0,0013.86,0007.12,0006.18
2022-07-18 07:52:00,,0827.9,5.00,0.00,29.6,28.5,00.0,38.3,31.6,25.7,0000.0,0013.90,0007.17,0006.19
2022-07-18 07:53:00,,0828.1,5.00,0.00,29.7,28.6,00.0,38.3,31.6,25.4,0000.0,0013.75,0007.14,0006.17
2022-07-18 07:54:00,,0827.8,4.99,0.00,29.7,28.6,00.0,38.4,31.7,25.2,0000.0,0013.54,0007.09,0006.16
2022-07-18 07:55:00,,0827.9,5.01,0.00,29.7,27.9,00.0,38.3,31.6,25.4,0000.0,0014.02,0007.12,0006.14
2022-07-18 07:56:00,,0827.9,4.99,0.00,29.6,27.1,00.0,38.2,31.4,25.5,0000.0,0015.20,0007.10,0006.10
2022-07-18 07:57:00,,0827.9,5.01,0.00,29.6,26.8,00.0,38.2,31.3,25.6,0000.0,0014.88,0007.06,0006.06
2022-07-18 07:58:00,,0827.9,4.99,0.00,29.5,26.9,00.0,38.2,31.2,25.7,0000.0,0013.25,0006.98,0006.04
2022-07-18 07:59:00,,0827.8,5.00,0.00,29.4,27.0,00.0,38.2,31.1,25.7,0000.0,0012.95,0006.88,0006.01
